{"data":{"norad_id":63210,"epoch":"2026-05-25T04:06:40.288896Z","epoch_age_seconds":53636,"freshness":"FRESH","line1":"1 63210U 25052A   26145.17129964  .00016110  00000+0  51239-3 0  9994","line2":"2 63210  97.4029  41.9057 0004384 138.6376 221.5198 15.32675020 66577","mean_motion":15.3267502,"eccentricity":0.0004384,"inclination_deg":97.4029,"raan_deg":41.9057,"arg_perigee_deg":138.6376,"mean_anomaly_deg":221.5198,"bstar":0.00051239,"rev_number":6657,"period_min":93.953380932639,"perigee_km":464.83377811644,"apogee_km":470.83632641186,"semimajor_km":6845.9720522641,"source":"CELESTRAK","updated_at":"2026-05-25T13:38:03.574061Z"}}